Weather History for Nassau Airport, Bahamas

Change the Weather History Date:

Wednesday, May 7, 2014

  Actual Average Record
Temperature  
Mean Temperature 80 °F -  
Max Temperature 86 °F 85 °F - ()
Min Temperature 74 °F 71 °F - ()
Cooling Degree Days 15    
Growing Degree Days 30 (Base 50)    
Moisture  
Dew Point 68 °F    
Average Humidity 64    
Maximum Humidity 78    
Minimum Humidity 50    
Precipitation  
Precipitation 0.00 in 0.19 in - ()
Sea Level Pressure  
Sea Level Pressure 30.09 in    
Wind  
Wind Speed 7 mph ()    
Max Wind Speed 14 mph    
Max Gust Speed -    
Visibility 7.0 miles    
Events      
T = Trace of Precipitation, MM = Missing Value Source: Averaged Metar Reports

Daily Weather History Graph

Daily Weather History Graph

Search for Another Location

Airport:

Trip Planner

Search our weather history database for the weather conditions in past years. The results will help you decide how hot, cold, wet, or windy it might be!

Date:

Astronomy

May. 07, 2014 Rise Set
Actual Time 6:29 AM EDT 7:43 PM EDT
Civil Twilight 6:05 AM EDT 8:07 PM EDT
Nautical Twilight 5:36 AM EDT 8:36 PM EDT
Astronomical Twilight 5:07 AM EDT 9:06 PM EDT
Moon 1:28 PM EDT (5/7) 1:44 AM EDT (5/7)
Length of Visible Light 14h 01m
Length of Day
13h 13m
First Quarter, 55% of the Moon is Illuminated
May 7
First Quarter
May 14
Full
May 21
Last Quarter
May 28
New
Jun 5
First Quarter

Hourly Weather History & Observations

Time (EDT) Temp. Heat Index Dew Point Humidity Pressure Visibility Wind Dir Wind Speed Gust Speed Precip Events Conditions
12:00 AM 77.0 °F - 64.4 °F 65% 30.05 in 6.2 mi ESE 8.1 mph - N/A   Partly Cloudy
2:00 AM 77 °F - 68 °F 68% 30.04 in 9 mi ESE 4.6 mph - -   Scattered Clouds
2:00 AM 77.0 °F - 68.0 °F 74% 30.04 in 6.2 mi ESE 4.6 mph - N/A   Partly Cloudy
3:00 AM 75.2 °F - 66.2 °F 73% 30.03 in 6.2 mi East 6.9 mph - N/A   Partly Cloudy
4:00 AM 75.2 °F - 66.2 °F 73% 30.03 in 6.2 mi East 6.9 mph - N/A   Partly Cloudy
5:00 AM 76 °F - 68 °F 70% 30.05 in 9 mi East 5.8 mph - -   Scattered Clouds
5:00 AM 75.2 °F - 68.0 °F 78% 30.04 in 6.2 mi East 5.8 mph - N/A   Partly Cloudy
6:00 AM 75.2 °F - 66.2 °F 73% 30.06 in 6.2 mi East 4.6 mph - N/A   Partly Cloudy
7:00 AM 75.2 °F - 66.2 °F 73% 30.07 in 6.2 mi ESE 5.8 mph - N/A   Partly Cloudy
8:00 AM 79 °F - 69 °F 65% 30.09 in 9 mi ESE 5.8 mph - -   Scattered Clouds
8:00 AM 78.8 °F - 69.8 °F 74% 30.08 in 6.2 mi ESE 5.8 mph - N/A   Partly Cloudy
9:00 AM 80.6 °F 83.2 °F 68.0 °F 65% 30.10 in 6.2 mi ESE 11.5 mph - N/A   Partly Cloudy
10:00 AM 80.6 °F 82.7 °F 66.2 °F 61% 30.11 in 6.2 mi SE 12.7 mph - N/A   Partly Cloudy
11:00 AM 84 °F - - % 30.13 in 9 mi ESE 11.5 mph - -   Scattered Clouds
11:00 AM 84.2 °F 88.4 °F 69.8 °F 62% 30.12 in 6.2 mi ESE 11.5 mph - N/A   Partly Cloudy
12:00 PM 84.2 °F 86.6 °F 66.2 °F 55% 30.12 in 6.2 mi ESE 10.4 mph - N/A   Partly Cloudy
1:00 PM 84.2 °F 85.6 °F 64.4 °F 51% 30.11 in 6.2 mi ESE 10.4 mph - N/A   Partly Cloudy
2:00 PM 86.0 °F 89.4 °F 68.0 °F 55% 30.11 in 6.2 mi East 11.5 mph - N/A   Partly Cloudy
3:00 PM 84.2 °F 86.6 °F 66.2 °F 55% 30.12 in 6.2 mi ESE 11.5 mph - N/A   Partly Cloudy
4:00 PM 84.2 °F 87.3 °F 68.0 °F 58% 30.10 in 6.2 mi East 11.5 mph - N/A   Scattered Clouds
5:00 PM 86 °F - 70 °F 50% 30.10 in 9 mi East 13.8 mph - -   Scattered Clouds
5:00 PM 86.0 °F 90.4 °F 69.8 °F 58% 30.10 in 6.2 mi East 13.8 mph - N/A   Partly Cloudy
9:00 PM 86 °F - 71 °F 53% 30.18 in 9 mi Calm Calm - -  
11:00 PM 79 °F - 69 °F 64% 30.16 in 9 mi ESE 9.2 mph - -   Scattered Clouds
11:00 PM 78.8 °F - 69.8 °F 74% 30.16 in 6.2 mi ESE 9.2 mph - N/A   Partly Cloudy